Weather History for Piarco, Trinidad And Tobago

Change the Weather History Date:

Thursday, August 29, 2013

  Actual Average Record
Temperature  
Mean Temperature 84 °F -  
Max Temperature 93 °F 88 °F 95 °F (1996)
Min Temperature 75 °F 74 °F 73 °F (1996)
Cooling Degree Days 19    
Growing Degree Days 34 (Base 50)    
Moisture  
Dew Point 75 °F    
Average Humidity 81    
Maximum Humidity 94    
Minimum Humidity 50    
Precipitation  
Precipitation 0.24 in 0.27 in - ()
Sea Level Pressure  
Sea Level Pressure 29.96 in    
Wind  
Wind Speed 1 mph ()    
Max Wind Speed 14 mph    
Max Gust Speed -    
Visibility 7.4 miles    
Events Rain , Thunderstorm    
Averages and records for this station are not official NWS values.
T = Trace of Precipitation, MM = Missing Value Source: Averaged Metar Reports

Daily Weather History Graph

Daily Weather History Graph

Search for Another Location

Airport:

Trip Planner

Search our weather history database for the weather conditions in past years. The results will help you decide how hot, cold, wet, or windy it might be!

Date:

Astronomy

Aug. 29, 2013 Rise Set
Actual Time 5:55 AM AST 6:16 PM AST
Civil Twilight 5:34 AM AST 6:37 PM AST
Nautical Twilight 5:09 AM AST 7:02 PM AST
Astronomical Twilight 4:44 AM AST 7:27 PM AST
Moon 12:14 AM AST (8/29) 1:09 PM AST (8/29)
Length of Visible Light 13h 03m
Length of Day
12h 20m
Last Quarter, 38% of the Moon is Illuminated
Aug 29
Last Quarter
Sep 5
New
Sep 12
First Quarter
Sep 19
Full
Sep 26
Last Quarter

Hourly Weather History & Observations

Time (AST) Temp. Heat Index Dew Point Humidity Pressure Visibility Wind Dir Wind Speed Gust Speed Precip Events Conditions
12:00 AM 78.8 °F - 77.0 °F 94% 29.98 in 6.2 mi Calm Calm - N/A   Mostly Cloudy
1:00 AM 78.8 °F - 77.0 °F 94% 29.98 in 6.2 mi Calm Calm - N/A   Mostly Cloudy
2:00 AM 78.8 °F - 75.2 °F 89% 29.95 in 6.2 mi Calm Calm - N/A   Mostly Cloudy
3:00 AM 77.0 °F - 75.2 °F 94% 29.95 in 6.2 mi Calm Calm - N/A   Mostly Cloudy
4:00 AM 77.0 °F - 75.2 °F 94% 29.95 in 6.2 mi Calm Calm - N/A   Mostly Cloudy
5:00 AM 77 °F - 74 °F 90% 29.96 in 12 mi Calm Calm - -   Scattered Clouds
5:00 AM 77.0 °F - 75.2 °F 94% 29.95 in 6.2 mi Calm Calm - N/A   Mostly Cloudy
6:00 AM 77.0 °F - 75.2 °F 94% 29.95 in 6.2 mi Calm Calm - N/A   Scattered Clouds
7:00 AM 77.0 °F - 75.2 °F 94% 29.98 in 6.2 mi Calm Calm - N/A   Scattered Clouds
8:00 AM 82 °F - 75 °F 73% 30.01 in 16 mi Calm Calm - -   Scattered Clouds
8:00 AM 82.4 °F 89.5 °F 75.2 °F 79% 30.01 in 6.2 mi Calm Calm - N/A   Partly Cloudy
9:00 AM 86.0 °F 95.1 °F 75.2 °F 70% 30.01 in 6.2 mi Calm Calm - N/A   Partly Cloudy
10:00 AM 89.6 °F 98.2 °F 73.4 °F 59% 30.01 in 6.2 mi Calm Calm - N/A   Partly Cloudy
11:00 AM 90 °F - 74 °F 50% 30.01 in 19 mi SSW 4.6 mph - -   Partly Cloudy
11:00 AM 91.4 °F 100.1 °F 73.4 °F 55% 30.01 in 6.2 mi SSW 4.6 mph - N/A   Scattered Clouds
12:00 PM 93.2 °F 102.4 °F 73.4 °F 52% 29.98 in 6.2 mi Calm Calm - N/A   Scattered Clouds
1:00 PM 91.4 °F 100.1 °F 73.4 °F 55% 29.95 in 6.2 mi Calm Calm - N/A   Mostly Cloudy
2:00 PM 88 °F - 73 °F 54% 29.92 in 6 mi WSW 9.2 mph - - Rain Light Rain Showers
2:00 PM 87.8 °F 95.6 °F 73.4 °F 62% 29.92 in 6.2 mi WSW 9.2 mph - N/A Rain Light Rain Showers
2:22 PM 89.6 °F 99.8 °F 75.2 °F 62% 29.92 in - WSW 8.1 mph - N/A Thunderstorm Light Thunderstorm
3:00 PM 87.8 °F 97.6 °F 75.2 °F 66% - 1.0 mi East 13.8 mph - N/A Rain , Thunderstorm Light Thunderstorms and Rain
4:00 PM 77.0 °F - 75.2 °F 94% - 6.2 mi NE 5.8 mph - N/A Rain , Thunderstorm Light Thunderstorms and Rain
4:08 PM 78.8 °F - 75.2 °F 89% 29.89 in 6.2 mi East 5.8 mph - N/A   Mostly Cloudy
5:00 PM 79 °F - 75 °F 84% 29.90 in 11 mi Calm Calm - -   Scattered Clouds
5:00 PM 78.8 °F - 75.2 °F 89% 29.89 in 6.2 mi Calm Calm - N/A   Mostly Cloudy
6:00 PM 78.8 °F - 75.2 °F 89% 29.92 in 6.2 mi Calm Calm - N/A   Mostly Cloudy
7:00 PM 77.0 °F - 75.2 °F 94% 29.92 in 6.2 mi Calm Calm - N/A   Scattered Clouds
8:00 PM 76 °F - 74 °F 91% 29.96 in 12 mi Calm Calm - -   Smoke
8:00 PM 77.0 °F - 73.4 °F 89% 29.95 in 6.2 mi Calm Calm - N/A   Scattered Clouds
9:00 PM 77.0 °F - 73.4 °F 89% 29.95 in 6.2 mi Calm Calm - N/A   Scattered Clouds
10:00 PM 75.2 °F - 73.4 °F 94% 29.98 in 6.2 mi Calm Calm - N/A   Scattered Clouds
11:00 PM 75 °F - 73 °F 91% 29.98 in 12 mi Calm Calm - -   Scattered Clouds
11:00 PM 75.2 °F - 73.4 °F 94% 29.98 in 6.2 mi Calm Calm - N/A   Scattered Clouds